Regional Weather Roundup
Issued by NWS Cleveland, OH

Home | Current Version | Previous Version | Graphics & Text | Print | Product List | Glossary On
Versions: 1 2 3 4 5 6 7 8 9 10 11 12 13 14 15 16 17 18 19 20 21 22 23 24 25 26 27 28 29 30 31 32 33 34 35 36 37 38 39 40 41 42 43 44 45 46 47 48 49 50
000
ASUS41 KCLE 240102
RWRCLE
OHIO REGIONAL WEATHER ROUNDUP
NATIONAL WEATHER SERVICE CLEVELAND, OH
900 PM EDT WED APR 23 2014

NOTE: "FAIR" INDICATES FEW OR NO CLOUDS BELOW 12,000 FEET WITH NO
SIGNIFICANT WEATHER AND/OR OBSTRUCTIONS TO VISIBILITY.

OHZ001>008-015>018-024>027-034-035-043-044-240200-
   NORTHWEST OHIO

CITY           SKY/WX    TMP DP  RH WIND       PRES   REMARKS
DEFIANCE       MOCLDY    53  21  28 CALM      30.09R
FINDLAY        PTCLDY    49  33  54 SE7       30.08R
TOLEDO EXPRESS MOCLDY    51  20  29 N5        30.09R
TOLEDO EXEC    PTCLDY    48  27  44 E3        30.10R
LIMA           CLEAR     51  30  44 E5        30.08R
$$

OHZ009>014-019>023-028>033-038-089-240200-
   NORTHEAST OHIO

CITY           SKY/WX    TMP DP  RH WIND       PRES   REMARKS
CLE-HOPKINS    PTCLDY    45  26  47 N5        30.13R
CLE-LAKEFRONT  CLEAR     44  34  67 NW6       30.10R
CUY CO. ARPT   PTCLDY    41  32  70 NW8       30.11R
LORAIN-ELYRIA  CLEAR     44  29  55 NE3       30.11R
ASHTABULA      CLEAR     38  17  42 NW7       30.10R
AKRON-CANTON   PTCLDY    43  23  45 N8        30.09R
WOOSTER        CLEAR     37  29  72 N5        30.10R
MANSFIELD      CLEAR     43  27  53 N5        30.10R
YOUNGSTOWN     PTCLDY    37  14  38 NW8       30.07R
$$

OHZ042-051>053-060>062-070>072-077>081-240200-
  SOUTHWEST OHIO

CITY           SKY/WX    TMP DP  RH WIND       PRES   REMARKS
CINC-COVINGTON PTCLDY    54  32  43 N7        30.07R
CINC-LUNKEN    CLEAR     54  32  43 CALM      30.08R
HAMILTON       CLEAR     51  35  54 N5        30.09R
DAYTON         PTCLDY    53  32  44 N3        30.09R
WRIGHT-PAT AFB CLEAR     52  32  47 N5        30.08R
DAYTON GENERAL CLEAR     53  32  44 N6        30.07R
WILMINGTON     CLEAR     49  32  52 N5        30.07R
$$

OHZ036-037-039>041-045>050-054>059-063>069-073>076-082>088-240200-
  CENTRAL AND SOUTHEAST OHIO

CITY           SKY/WX    TMP DP  RH WIND       PRES   REMARKS
COLUMBUS       PTCLDY    51  30  44 N6        30.08R
OSU AIRPORT    CLEAR     47  32  56 NE8       30.09R
BOLTON FIELD   CLEAR     47  34  59 NE7       30.09R
RICKENBACK AFB NOT AVBL
NEWARK         CLEAR     49  29  46 N5        30.08R
MARION         PTCLDY    42  30  62 E8        30.10R
LANCASTER      CLEAR     45  35  68 NE6       30.09R
ZANESVILLE     CLEAR     48  30  49 NE5       30.09R
NEW PHILLY     CLEAR     45  28  51 NW5       30.09R
$$



USA.gov is the U.S. government's official web portal to all federal, state and local government web resources and services.